This demonstration page uses our WeatherBlox Daily Observations layout. Learn more.

Left ArrowRight Arrow

38.20091, -84.87328

Hourly Observations for September 17, 2021

Temp ( °F °C ) Dew Point ( °F °C ) Humidity (%) Winds ( mph kmh ) Pressure ( in mb ) Visibility ( mi km ) Precip ( " mm )
12:53 am 00:53 Clear 71 21.7 67 19.4 87 87 E 6 9 30.07 1018 10 16 0.00 0.00
1:53 am 01:53 Clear 70 21.1 67 19.4 90 90 E 5 7 30.06 1018 10 16 0.00 0.00
2:53 am 02:53 Clear 69 20.6 67 19.4 93 93 E 3 6 30.05 1018 10 16 0.00 0.00
3:53 am 03:53 Clear 68 20 67 19.4 96 96 Calm 30.05 1018 8 13 0.00 0.00
4:53 am 04:53 Clear with Mist and Fog 67 19.4 65 18.3 93 93 Calm 30.05 1018 5 8 0.00 0.00
5:37 am 05:37 Clear with Mist and Fog 66 18.9 65 18.3 96 96 Calm 30.07 1018 2 3 0.00 0.00
5:46 am 05:46 Clear with Mist and Fog 66 18.9 65 18.3 96 96 Calm 30.07 1018 3 5 0.00 0.00
5:51 am 05:51 Clear with Mist and Fog 64 18 64 18 100 100 Calm 30.08 1019 2 2 0.00 0.00
5:53 am 05:53 Clear with Mist and Fog 65 18.3 64 17.8 97 97 Calm 30.07 1018 1 2 0.00 0.00
6:01 am 06:01 Clear with Mist and Fog 65 18.3 64 17.8 97 97 Calm 30.09 1019 2 3 0.00 0.00
6:08 am 06:08 Clear 65 18.3 64 17.8 97 97 Calm 30.09 1019 8 13 0.00 0.00
6:53 am 06:53 Clear 65 18.3 64 17.8 97 97 Calm 30.09 1019 9 14 0.00 0.00
7:53 am 07:53 Sunny with Mist and Fog 65 18.3 64 17.8 97 97 Calm 30.11 1020 5 8 0.00 0.00
8:53 am 08:53 Sunny 70 21.1 68 20 93 93 SE 3 6 30.12 1020 8 13 0.00 0.00
9:53 am 09:53 Sunny 76 24.4 70 21.1 82 82 S 5 7 30.13 1020 10 16 0.00 0.00
10:53 am 10:53 Mostly Cloudy 79 26.1 70 21.1 74 74 VRB 3 6 30.15 1021 10 16 0.00 0.00
11:53 am 11:53 Cloudy 81 27.2 69 20.6 67 67 VRB 3 6 30.14 1021 10 16 0.00 0.00
12:53 pm 12:53 Mostly Cloudy 82 27.8 70 21.1 67 67 Calm 30.14 1021 10 16 0.00 0.00
1:53 pm 13:53 Cloudy 85 29.4 69 20.6 59 59 SSW 6 9 30.12 1020 10 16 0.00 0.00
2:53 pm 14:53 Partly Cloudy 86 30 68 20 55 55 Calm 30.09 1019 10 16 0.00 0.00
3:53 pm 15:53 Mostly Sunny 86 30 68 20 55 55 ESE 6 9 30.07 1018 10 16 0.00 0.00
4:53 pm 16:53 Mostly Sunny 85 29.4 68 20 57 57 S 7 11 30.07 1018 10 16 0.00 0.00
5:53 pm 17:53 Partly Cloudy 85 29.4 69 20.6 59 59 SSE 3 6 30.06 1018 10 16 0.00 0.00
6:53 pm 18:53 Sunny 83 28.3 69 20.6 63 63 SSE 3 6 30.06 1018 10 16 0.00 0.00
7:53 pm 19:53 Clear 77 25 70 21.1 79 79 S 6 9 30.07 1018 10 16 0.00 0.00
8:53 pm 20:53 Clear 74 23.3 70 21.1 88 88 Calm 30.09 1019 10 16 0.00 0.00
9:53 pm 21:53 Clear 73 22.8 70 21.1 90 90 Calm 30.10 1019 10 16 0.00 0.00
10:53 pm 22:53 Clear 70 21.1 69 20.6 97 97 Calm 30.10 1019 10 16 0.00 0.00
11:53 pm 23:53 Clear 71 21.7 69 20.6 94 94 Calm 30.10 1019 10 16 0.00 0.00

Powered by AerisWeather